Lapse_Rate
5.3 5.3 5.3 5.4 5.5 5.8 5.9 5.9 6.0 5.4 5.3 5.7 5.1 5.5 5.6 5.7 5.8 5.5 5.5 5.8 5.5 5.5 5.4 5.7 5.7 5.5 5.4 5.5 5.6 5.5 5.6 5.9 6.1 6.3 7.0 7.3 7.2 7.2 7.1 7.0 7.1 7.1 7.2
5.1 4.9 5.0 5.1 5.2 5.5 5.7 5.9 6.1 6.1 5.5 5.7 5.7 5.7 5.7 5.4 5.8 5.6 5.4 5.5 5.5 5.3 5.4 5.5 5.7 5.8 5.7 5.5 5.6 5.3 6.4 6.2 6.1 6.2 6.5 6.7 7.1 6.9 7.0 7.0 6.9 7.0 6.8
5.0 5.4 5.5 5.3 5.1 5.2 5.5 5.5 5.8 6.1 6.2 5.9 5.7 5.8 5.7 5.6 5.7 5.8 5.5 5.5 5.7 5.8 5.5 5.5 5.5 5.6 5.8 5.7 5.8 6.0 6.0 6.1 6.5 6.8 6.9 6.8 6.7 6.6 6.8 6.8 6.9 6.9 6.9
5.9 6.2 5.3 5.6 5.4 5.2 5.4 5.6 5.7 5.8 6.0 6.3 6.2 6.1 6.2 6.2 6.1 6.1 5.9 5.7 5.7 5.8 5.8 5.7 5.9 5.9 5.8 5.9 6.0 6.0 6.0 6.1 6.4 6.5 6.6 6.6 6.5 6.5 6.6 6.6 6.8 6.6 6.8
5.6 5.4 5.9 6.2 5.8 5.5 5.4 5.6 5.9 5.9 6.0 6.0 6.1 6.2 6.2 6.2 6.2 6.2 6.1 5.9 5.8 5.9 6.0 5.9 6.0 6.0 6.1 6.1 6.0 6.0 6.0 6.1 6.2 6.2 6.4 6.5 6.6 6.6 6.5 6.3 6.5 6.7 6.8
6.0 6.2 5.8 5.8 6.0 6.1 6.0 6.1 5.8 5.8 5.9 5.8 5.8 6.0 6.0 6.2 6.3 6.1 5.9 5.8 5.7 5.7 5.8 5.9 5.9 6.0 6.1 6.2 6.2 6.1 6.3 6.3 6.3 6.4 6.4 6.4 6.2 5.9 6.1 6.1 6.3 6.5 6.8
5.5 5.6 5.7 5.6 6.0 6.0 6.1 6.1 6.1 6.1 6.0 5.9 5.8 5.9 5.9 6.0 6.1 6.1 5.9 5.8 5.7 5.7 5.8 5.9 5.9 6.1 6.0 6.1 6.2 6.3 6.3 6.3 6.4 6.2 6.5 6.4 6.3 6.0 6.1 6.2 6.2 6.3 6.4
5.5 5.9 5.8 5.9 6.0 6.0 6.0 6.1 6.1 6.1 6.3 6.1 6.1 6.0 6.1 6.1 6.1 5.9 5.8 5.7 5.8 5.9 5.9 6.0 6.1 6.1 6.0 6.0 6.1 6.2 6.2 6.3 6.4 6.4 6.5 6.5 6.4 6.4 6.3 6.4 6.5 6.4 6.5
6.2 6.2 6.2 6.0 6.1 6.1 6.0 6.1 6.1 6.1 6.1 6.2 6.3 6.3 6.3 6.4 6.2 6.0 5.8 5.9 5.9 6.0 6.2 6.1 6.0 6.2 6.4 6.2 5.7 6.0 6.4 6.5 6.4 6.2 6.3 6.5 6.6 6.5 6.4 6.4 6.6 6.4 6.7
6.4 6.2 6.3 6.2 5.8 5.7 5.9 6.1 6.1 6.2 6.2 6.2 6.4 6.5 6.4 6.3 6.4 6.2 6.0 5.8 5.7 5.8 6.0 6.1 6.2 6.2 6.2 6.1 6.0 6.0 6.1 6.7 6.1 6.2 6.3 6.5 6.8 7.0 6.8 6.7 6.6 6.5 6.4
6.3 6.3 6.3 6.3 6.0 5.8 5.7 5.7 5.8 6.2 6.4 6.4 6.4 6.5 6.5 6.7 6.8 6.4 6.1 6.1 6.1 5.8 5.7 5.8 5.9 6.1 6.0 5.8 5.8 5.8 6.3 6.2 6.3 6.1 6.2 6.4 6.7 7.0 7.1 6.9 6.6 6.4 6.5
6.3 6.2 6.1 6.1 6.1 6.2 6.1 5.8 5.9 5.7 5.9 6.3 6.3 6.5 6.5 6.7 6.4 6.3 6.4 6.4 6.3 6.1 6.0 5.9 5.8 5.8 5.9 6.0 6.0 6.3 6.2 6.0 5.9 6.2 6.4 6.8 6.9 6.9 6.9 6.6 6.5 6.8 6.8
5.9 6.1 6.1 6.0 6.0 6.0 6.1 6.0 5.9 5.8 5.9 5.9 6.0 6.4 6.5 6.7 6.6 6.4 6.4 6.4 6.3 6.2 6.1 6.2 6.1 6.1 6.1 6.2 6.3 6.6 6.5 5.9 5.9 6.0 6.5 6.7 6.8 6.7 6.6 6.6 6.2 5.9 6.2
5.9 5.8 5.8 5.8 5.7 5.7 5.8 5.8 5.9 5.7 5.5 5.9 6.3 6.1 5.9 6.2 6.3 6.4 6.4 6.3 6.2 6.4 6.3 6.0 6.2 6.3 6.2 6.0 6.1 6.3 6.4 6.3 6.0 6.0 6.4 6.5 6.5 6.6 6.6 6.6 6.5 6.4 6.2
6.0 6.1 6.0 5.8 5.8 5.8 5.7 5.8 5.9 5.9 5.8 5.8 5.7 5.7 6.0 6.1 5.8 5.9 6.3 6.4 6.0 6.3 6.3 6.2 6.3 6.2 6.5 6.4 6.3 6.2 6.1 6.3 6.3 6.3 6.2 6.3 6.4 6.3 6.3 6.3 6.3 6.3 6.3
6.3 6.2 6.0 5.9 5.8 5.7 5.5 5.5 5.5 5.7 5.8 5.7 5.8 5.7 5.7 5.8 6.0 5.7 5.7 6.0 6.1 6.3 6.8 6.7 6.5 6.1 6.2 6.4 6.3 6.3 6.3 5.9 6.0 6.2 6.1 6.0 6.0 6.0 6.0 6.1 6.2 6.3 6.4
6.4 6.4 6.3 6.2 5.9 5.8 5.8 5.7 5.8 5.6 5.3 5.5 5.6 5.7 5.6 5.8 5.8 5.8 5.6 5.4 5.2 5.4 5.7 6.0 6.1 6.1 6.3 6.4 6.4 6.5 6.4 6.2 5.9 6.0 6.1 6.1 6.3 6.4 6.2 6.1 6.2 6.3 6.4
6.5 6.6 6.6 6.6 6.5 6.4 6.1 5.8 5.5 5.5 5.5 5.6 5.4 5.4 5.7 5.8 5.7 5.8 5.5 5.4 5.3 4.8 5.2 5.6 5.8 5.7 5.9 6.3 6.2 6.2 6.0 6.0 5.8 5.9 5.9 5.8 6.0 5.9 6.0 5.7 6.0 6.1 6.1
6.7 6.7 6.7 6.8 6.7 6.5 6.5 6.4 6.1 5.8 5.6 5.5 5.4 5.4 5.3 5.4 5.6 5.5 5.3 5.3 5.2 5.1 4.9 5.0 5.1 5.0 5.2 5.4 5.6 5.7 6.2 5.6 6.1 5.7 5.2 6.1 6.2 6.1 5.9 5.9 6.1 6.3 6.4
6.5 6.6 6.6 6.7 6.7 6.7 6.7 6.7 6.5 6.3 6.1 5.9 5.6 5.6 5.6 5.3 5.1 5.4 5.5 5.3 5.3 5.2 5.3 5.0 5.0 5.0 5.0 5.2 5.3 5.4 5.2 5.6 6.1 5.9 5.6 6.0 6.4 6.3 6.1 6.1 6.3 6.4 6.5
6.1 6.1 6.3 6.3 6.3 6.3 6.3 6.3 6.4 6.4 6.3 6.2 6.1 6.1 5.8 5.5 5.5 5.7 5.8 5.9 5.6 5.5 5.4 5.3 5.1 5.1 5.1 5.3 5.2 5.5 5.9 6.3 5.8 6.2 5.5 6.0 6.2 6.3 6.0 6.1 6.2 6.4 6.5
5.7 5.7 5.8 6.0 6.1 6.2 6.4 6.4 6.4 6.4 6.3 6.3 6.3 6.0 6.1 5.6 5.6 5.7 5.7 5.7 5.5 5.4 5.3 5.0 5.1 5.3 5.4 5.3 5.4 5.5 5.6 5.8 6.2 5.7 5.8 6.1 5.7 5.8 5.9 5.5 5.9 6.1 6.3
5.8 5.7 5.6 5.6 5.5 5.5 5.7 5.8 6.1 6.2 6.2 6.3 6.3 6.1 5.8 5.7 5.6 5.4 5.5 5.9 6.1 6.1 5.9 5.6 5.6 5.6 5.4 5.5 5.5 5.4 5.5 5.7 5.8 5.8 5.9 5.7 5.7 5.8 5.5 5.5 5.5 5.7 6.1
6.1 6.1 6.0 5.8 5.7 5.8 5.8 5.8 6.0 6.1 6.4 6.5 6.3 6.2 6.2 5.9 5.7 5.5 5.4 5.6 6.0 6.5 6.2 5.8 5.5 5.5 5.6 5.6 5.8 5.7 5.7 5.8 6.0 6.0 5.9 6.0 5.9 6.3 5.8 5.6 5.7 5.8 6.1
6.3 6.4 6.5 6.3 6.0 6.0 6.4 6.2 6.1 6.2 6.3 6.4 6.4 6.4 6.4 6.3 5.7 5.6 5.6 5.5 5.8 6.1 6.4 5.9 5.6 5.7 5.7 5.8 6.1 6.4 6.1 6.1 6.2 6.3 6.4 6.6 6.4 6.3 6.2 5.8 6.2 6.0 6.1
6.4 6.7 6.8 6.7 6.3 5.7 5.8 5.9 5.7 5.7 5.7 5.8 6.0 5.9 6.1 6.1 5.9 5.7 5.6 5.5 5.4 5.6 5.8 6.5 6.2 5.9 5.8 5.8 6.1 6.6 6.7 6.5 6.5 6.4 6.6 6.8 7.0 7.0 6.8 6.5 6.3 6.4 6.4
Wind_Speed
14 14 13 12 11 9 7 5 4 2 12 9 10 13 7 5 6 6 5 2 5 5 5 3 5 6 4 5 5 5 4 2 3 4 3 3 5 5 8 10 11 16 15
15 13 14 12 12 12 10 9 7 6 5 5 10 8 6 7 6 7 6 5 7 6 6 6 6 5 6 4 3 6 4 3 2 6 4 4 5 8 7 5 9 13 18
9 14 12 13 12 12 12 11 9 8 7 8 7 7 7 7 6 7 8 7 6 6 7 6 7 6 4 4 5 4 5 3 3 3 4 4 3 5 5 5 6 7 15
13 17 10 11 10 10 6 10 10 9 9 9 8 8 10 9 9 8 7 6 6 6 6 7 7 7 7 6 6 5 6 5 4 4 4 5 5 8 5 3 3 3 5
13 13 13 12 2 5 6 8 7 9 9 9 9 8 7 10 9 8 7 9 10 10 8 9 9 8 10 9 6 6 7 6 5 5 5 4 4 3 3 3 2 3 4
10 11 11 11 11 12 7 5 6 5 7 8 10 9 9 9 12 13 12 9 7 11 9 10 7 7 11 10 11 12 8 5 5 5 6 5 5 4 4 3 4 4 5
10 10 9 9 9 10 9 9 8 7 7 8 9 10 11 10 12 9 9 9 9 8 10 10 8 10 11 11 14 15 14 13 13 8 8 8 8 6 4 5 5 5 7
6 8 9 9 9 8 7 8 9 9 8 8 9 9 11 9 11 13 10 6 9 10 10 8 10 11 11 6 9 9 12 13 11 9 11 13 13 12 8 7 8 8 8
8 5 4 6 7 7 8 8 6 7 8 9 9 10 10 11 11 10 8 7 10 11 11 10 10 11 11 15 12 11 10 10 19 29 27 28 29 30 22 4 6 6 9
10 9 7 8 7 5 5 6 5 4 6 6 10 10 12 11 11 11 9 7 11 10 11 11 16 16 13 15 10 12 14 14 12 13 6 10 21 18 25 14 9 9 9
9 9 10 7 7 7 5 5 6 7 6 8 8 8 9 11 13 12 12 10 10 9 10 11 11 18 21 21 17 16 18 13 13 11 11 11 11 10 10 14 16 12 12
9 8 9 10 8 7 7 6 8 8 8 7 7 7 5 6 10 9 9 9 11 8 12 11 11 12 9 14 15 22 20 14 12 11 11 11 11 10 9 11 17 20 22
9 11 10 8 9 8 6 8 8 7 6 6 5 4 4 5 5 8 6 8 6 6 6 13 22 18 14 9 14 19 8 10 11 11 12 12 11 11 11 9 11 12 20
11 10 9 12 10 9 7 8 5 7 6 7 6 6 7 6 2 2 3 4 4 3 4 7 13 16 15 15 12 13 6 9 11 12 12 11 10 10 11 10 11 10 8
11 11 11 9 11 11 8 7 6 6 6 6 6 6 7 8 6 5 5 5 4 3 4 4 7 9 8 8 9 10 10 9 10 11 11 11 11 11 11 9 10 8 6
10 10 10 10 10 9 9 10 12 11 12 11 12 10 8 10 11 11 10 10 6 6 3 5 7 9 11 9 7 6 10 13 13 11 12 12 12 11 10 9 6 9 9
9 9 9 10 9 10 9 10 11 11 14 14 16 15 13 14 12 13 14 10 6 5 4 7 8 10 11 10 7 5 11 14 15 14 15 12 11 11 11 10 9 9 7
10 10 8 8 9 9 10 11 11 12 13 12 9 6 9 15 16 17 15 2 8 6 8 8 9 10 11 11 8 8 15 16 12 14 13 10 12 10 9 7 5 7 8
8 8 9 9 8 9 9 10 10 12 12 13 12 12 11 13 17 15 5 6 9 9 9 8 9 9 9 10 10 10 12 9 6 10 14 10 9 11 10 8 8 10 7
9 11 8 9 9 10 9 10 10 11 12 12 12 13 13 10 9 10 8 7 7 8 8 9 10 9 9 9 10 12 11 10 9 9 12 9 8 10 10 9 9 8 8
8 9 14 9 10 9 9 10 10 11 12 12 13 14 18 13 12 11 11 11 12 12 12 11 10 10 7 8 8 9 10 11 7 9 9 8 8 9 10 9 9 9 7
8 9 9 9 10 11 11 11 11 11 12 13 14 14 14 12 13 12 13 13 14 13 12 8 5 7 7 7 8 9 8 9 10 7 8 8 8 7 8 9 8 7 7
6 8 8 9 9 13 12 11 11 11 12 13 13 13 12 11 12 13 14 14 13 10 9 9 9 9 10 10 10 8 9 9 6 5 7 8 8 6 8 11 10 8 8
5 7 8 9 8 9 9 11 12 15 14 13 13 13 12 12 13 14 12 12 13 12 11 11 12 14 12 10 14 14 12 11 8 6 9 7 7 8 7 7 6 8 9
4 6 8 8 9 9 10 11 11 12 12 13 13 12 12 12 13 13 12 12 12 11 13 11 11 13 12 13 14 18 19 21 15 14 7 10 10 10 9 8 7 6 6
5 5 7 6 7 7 8 9 10 12 11 11 13 13 12 12 12 12 11 11 11 11 11 8 9 12 13 12 13 18 21 21 16 17 11 8 9 8 6 6 6 3 4
Wind_Direction
192 191 195 195 201 211 226 223 217 213 154 155 166 249 222 199 202 201 236 242 175 230 269 283 254 280 294 311 348 322 283 295 289 302 360 344 342 295 278 273 289 292 293
194 194 190 187 194 195 205 212 206 202 202 218 194 216 170 224 213 203 219 238 182 221 226 232 245 233 245 275 274 289 311 318 320 312 315 311 292 281 256 231 254 274 288
219 186 192 189 191 201 193 202 203 204 202 213 211 213 204 224 225 204 207 241 227 253 216 194 248 245 236 260 291 312 306 298 291 263 273 265 276 280 289 271 251 262 274
29 7 185 191 197 202 214 196 206 198 204 210 225 215 201 219 222 212 212 226 231 247 249 233 220 225 218 213 246 266 276 283 273 271 269 266 259 261 244 265 343 315 318
34 29 21 358 302 185 211 224 219 208 207 211 219 232 231 213 227 226 237 206 212 229 242 252 231 226 229 210 212 232 234 255 254 265 263 264 274 11 333 296 297 327 325
30 31 15 19 28 26 347 279 243 243 240 219 221 229 233 243 236 217 212 228 219 216 226 245 246 240 240 226 222 235 231 247 276 284 283 288 291 305 355 357 332 325 310
36 38 21 15 24 22 11 13 342 285 260 256 242 234 237 236 246 260 227 236 227 223 220 226 237 251 232 225 227 230 243 232 222 236 262 269 284 283 300 309 300 288 288
61 29 26 33 22 10 13 13 1 351 315 282 267 254 247 245 241 238 239 237 258 251 247 242 226 235 256 243 235 232 236 243 235 225 229 248 250 258 255 256 260 265 272
44 51 49 43 15 10 2 351 350 343 344 329 292 275 266 258 247 244 235 250 249 249 255 256 251 255 253 240 246 246 254 247 233 229 230 231 236 245 246 282 268 276 277
10 2 14 5 3 357 340 331 309 303 309 308 317 298 267 260 259 238 224 238 247 254 251 245 242 250 245 240 241 244 247 249 250 268 250 249 251 249 246 231 245 251 260
352 345 342 347 328 319 344 315 314 306 297 288 295 299 295 287 279 254 231 245 246 247 248 254 253 224 231 239 229 242 247 253 250 247 255 258 255 239 234 225 228 232 245
341 330 327 323 322 326 313 314 301 285 272 275 280 285 284 317 303 308 309 260 315 298 274 270 272 15 328 275 254 242 237 240 250 254 255 256 260 262 253 237 221 222 227
339 328 321 304 299 289 301 294 280 283 284 261 277 295 330 15 32 74 38 54 29 355 311 301 308 303 284 248 240 249 262 249 249 249 250 252 252 255 262 264 268 240 226
340 331 325 320 299 287 274 283 305 303 315 339 336 342 334 335 282 23 8 350 331 332 337 315 297 281 265 267 277 269 228 236 231 236 243 251 256 255 255 249 251 250 245
340 330 321 320 337 327 319 318 309 307 301 300 301 294 295 296 293 304 320 318 285 288 313 285 295 290 275 268 263 256 241 224 226 229 235 239 244 249 251 243 249 253 252
339 337 333 327 329 319 317 310 306 278 273 269 260 247 262 254 281 285 281 275 265 272 249 264 268 269 266 259 258 275 279 258 241 227 229 232 234 236 245 250 247 233 236
341 332 329 318 313 312 315 310 307 302 288 278 267 256 246 254 281 284 280 280 253 176 234 257 258 262 267 263 257 269 283 271 251 251 238 231 229 228 228 237 243 246 254
330 308 315 326 322 317 316 314 315 313 310 310 305 268 274 253 252 259 268 317 287 208 249 248 253 255 265 265 250 230 239 260 272 263 236 231 240 232 234 234 241 248 245
330 331 335 320 311 304 302 302 301 303 302 304 304 290 281 259 254 264 237 248 265 268 273 272 270 260 267 270 261 254 258 271 244 310 274 260 244 247 247 244 246 246 252
337 335 336 321 319 312 313 313 304 300 300 300 301 307 316 305 309 316 304 290 262 269 275 281 282 280 269 260 264 269 278 272 271 253 251 262 265 262 253 246 246 243 256
333 341 340 330 331 324 316 312 303 306 304 295 289 296 316 320 309 303 297 293 294 291 285 276 270 273 315 338 335 316 289 270 263 265 255 250 244 251 251 247 248 237 240
357 352 349 341 334 328 326 315 300 296 293 288 288 293 292 291 289 296 293 277 269 265 270 281 320 315 314 315 321 318 313 313 320 328 320 303 270 259 261 261 243 238 241
359 349 347 341 335 325 319 317 310 305 300 296 294 295 293 286 281 276 277 288 300 314 321 326 326 317 317 315 311 302 294 291 296 312 298 296 305 302 261 263 260 247 242
343 340 337 333 334 321 315 311 309 304 300 298 293 288 286 285 282 278 274 280 292 300 304 305 302 299 299 294 290 287 284 278 281 284 281 268 270 273 272 270 264 265 253
306 327 327 334 333 322 316 310 309 304 301 300 297 293 288 282 274 273 275 277 277 281 284 286 286 287 286 285 280 281 279 281 273 267 276 271 262 262 261 255 253 248 240
272 277 304 326 329 314 310 311 308 309 303 303 301 296 290 285 281 278 280 283 277 271 272 270 268 276 285 288 286 288 284 275 267 254 239 248 250 245 235 237 214 194 186